Location: De Har
(53.3413°N, 6.6858°E)
Time: 20:26:46
(UTC+00:00)

ARGOS - Pass Details

Date: 22 April 2026
Orbit: 817 x 833 km, 98.5° (Epoch: 21 May)

Event Time Altitude Azimuth Distance (km) Brightness Sun altitude
Rises 03:05:40 0° 17° (NNE) 3,381 7.3 -10.3°
Reaches altitude 10° 03:08:05 10° 21° (NNE) 2,441 6.6 -10.0°
Maximum altitude 03:13:26 59° 101° (E) 951 3.7 -9.3°
Drops below altitude 10° 03:18:42 10° 181° (S) 2,414 5.2 -8.7°
Sets 03:21:05 0° 185° (S) 3,340 5.9 -8.4°
